Regional Weather Roundup
Issued by NWS State College, PA

Home | Current Version | Previous Version | Text Only | Print | Product List | Glossary On
Versions: 1 2 3 4 5 6 7 8 9 10 11 12 13 14 15 16 17 18 19 20 21 22 23 24 25 26 27 28 29 30 31 32 33 34 35 36 37 38 39 40 41 42 43 44 45 46 47 48 49 50
000
ASUS41 KCTP 290710
RWRCTP

REGIONAL WEATHER ROUNDUP
NATIONAL WEATHER SERVICE STATE COLLEGE PA
200 AM EST SAT NOV 29 2014

Note: "fair" indicates few or no clouds below 12,000 feet with no
significant weather and/or obstructions to visibility.

* = STATION THAT DOES NOT REPORT PRECIPITATION /E.G. RAIN...SNOW...ETC/
    THUNDER OR FOG.

PAZ002>004-007>009-013>016-020>023-029>032-290800-
WESTERN PENNSYLVANIA

CITY           SKY/WX    TMP DP  RH WIND       PRES   REMARKS
ERIE           CLOUDY    27  20  75 S12       30.15F
MEADVILLE      CLOUDY    25  19  78 S3        30.13S
FRANKLIN*      CLOUDY    23  18  80 SE7       30.15F WCI  15
NEW CASTLE       N/A     27  19  71 CALM      30.17S
BEAVER COUNTY  NOT AVBL
BUTLER*        CLOUDY    27  19  74 SE5       30.18S
PITTSBURGH INT CLOUDY    28  19  69 SE6       30.16S
PITTSBURGH     CLOUDY    27  17  66 S6        30.16R
INDIANA*       CLOUDY    27  19  74 SE3       30.21S
LATROBE        CLOUDY    28  19  69 CALM      30.20S
WASHINGTON CO* CLOUDY    28  18  64 S3        30.18R
$$

PAZ004>006-010>012-017>019-024>028-033>037-041-042-045-046-049>053-290800-
CENTRAL PENNSYLVANIA

CITY           SKY/WX    TMP DP  RH WIND       PRES   REMARKS
BRADFORD       LGT SNOW  20  14  77 S6        30.12R WCI  12
DUBOIS         LGT SNOW  21  18  88 CALM      30.15R FOG
CLEARFIELD     LGT SNOW  20  17  88 CALM      30.19R FOG
JOHNSTOWN      CLOUDY    22  15  75 SW6       30.12S WCI  14
ALTOONA        LGT SNOW  24  20  84 CALM      30.20R FOG
STATE COLLEGE  CLOUDY    21  15  76 CALM      30.21S
WILLIAMSPORT   MOCLDY    20  14  77 CALM      30.27R
SELINSGROVE    CLOUDY    22  18  85 CALM      30.29R
FT INDIANTOWN  MOCLDY    26  18  72 S1        30.29R
CAPITAL CITY   PTCLDY    27  16  63 CALM      30.30R
HARRISBURG     MOCLDY    26  17  68 CALM      30.29R
YORK           PTCLDY    24  16  71 CALM      30.28R
$$

PAZ038>040-043-044-047-048-054-055-060>062-067>071-290800-
EASTERN PENNSYLVANIA

CITY           SKY/WX    TMP DP  RH WIND       PRES   REMARKS
SCRANTON       PTCLDY    14   9  80 S6        30.24R WCI   5
MOUNT POCONO   CLEAR     10   7  87 CALM      30.17R
ALLENTOWN      CLEAR     20  14  77 CALM      30.29R
QUAKERTOWN*    SUNNY     19  18  93 CALM      30.29R
READING        CLOUDY    26  17  68 CALM      30.29R
LANCASTER      MOCLDY    26  17  68 CALM      30.29R
COATESVILLE    MOSUNNY   25  18  74 CALM      30.28S
POTTSTOWN      PTCLDY    22  18  85 CALM      30.31R
BLUE BELL      CLEAR     25  21  86 CALM      30.30R
DOYLESTOWN       N/A    N/A N/A N/A MISG      30.29R
WILLOW GROVE   NOT AVBL
NORTH PHILA    CLEAR     29  16  58 CALM      30.33R
PHILADELPHIA   MOCLDY    28  16  60 W6        30.33R
$$


USA.gov is the U.S. government's official web portal to all federal, state and local government web resources and services.